DELTA 1 DEB, 12176

Orbit data source: Space-Track

DELTA 1 DEB, 12176 is space debris in SSO originally from a launch on Sun, 05 Mar 1978 UTC launched from the Air Force Western Test Range (AFWTR). Debris objects in space refer to the collection of defunct objects orbiting the Earth. Examples of debris include non-operational satellites, rocket bodies, and fragments generated from explosions, collisions, or faulty payload assembly.

Loading next visibility...
Identifier
12176, 1978-026R
Orbit
SSO
Country
Flag of USUS
Related business
Manufacturer
Unknown
Mission
Spacecraft
Bus & Motor
Unknown
Mass
Unknown
Launch date (UTC)
1978-03-05 (48 years ago)
Launch vehicle
Unknown
Launch site
Air Force Western Test Range (AFWTR)
Object type
Payload
Rocket body
Debris
Shape & HBR
Unknown shape, 0.2 m
Radar Cross Section
Medium (>0.1 m² and <1 m²)

Expand to show TLE details & history
Last TLE update: 2 days ago

TLE from 2 days ago
0 DELTA 1 DEB
1 12176U 78026R   26171.46542038  .00000020  00000-0  50651-4 0  9992
2 12176  98.9313  56.6856 0063878 287.2700 252.0730 13.89028155298725
Epoch: 2026-06-20T11:10Z
TLE epoch observation values (Epoch: 2026-06-20T11:10:12.320Z)
Latitude
1.22847°
Longitude
160.6467°
Altitude
949.398 km
Speed
7.37 km/s
True Right ascension
15h 47m 30s
True Declination
1° 13' 17"
Sunlit
Object was in full shadow at epoch
Visualization orbit readout
Latitude
Unknown
Longitude
Unknown
Altitude
Unknown
Speed
Unknown
Apparent Right ascension
Unknown
Apparent Declination
Unknown
Sunlit
N/A
Visualization observer readout
Local Sidereal Time
07:04:02
Azimuth
Unknown
Elevation
Unknown
Doppler factor
Unknown
Orbital elements
Apogee altitude
975.927 km
Perigee altitude
882.571 km
Semi-major axis
7,307.386 km
Eccentricity
0.00639
Inclination
98.9313°
RAAN
56.6856°
Arg. of periapsis
287.27°
True anomaly
251.37828°
Mean anomaly
252.073°
Eccentric anomaly
251.72546°
Mean motion
3.47456 °/min
Orbital period
103.61 mins
BSTAR
0.000050651
Loading maneuver chart data...
Computing Atmospheric mass density...

Documentation

Showing up to 5 results
|